Overview Statistics Trail Chart Weather Telemetry Raw packets
 

This is the latest recevied weather packets stored in our database for station/object LU4EGV-13. If no packets are shown the sender has not sent any weather packets the latest 10 day(s).

<< 42 43 44 45 46 47 48 >>
Time Temp. Humidity Pressure Rain* Wind** Luminosity Snow
1788026482 22.78° C 37% 1011.8 hPa 0 mm - - -
1788025873 21.67° C 39% 1011.7 hPa 0 mm - - -
1788025267 23.33° C 34% 1011.4 hPa 0 mm - - -
1788024660 23.89° C 33% 1011.6 hPa 0 mm - - -
1788024054 23.89° C 33% 1011.6 hPa 0 mm - - -
1788023464 23.89° C 33% 1012 hPa 0 mm - - -
1788022841 24.44° C 32% 1011.9 hPa 0 mm - - -
1788022236 24.44° C 33% 1012 hPa 0 mm - - -
1788021630 24.44° C 32% 1012.2 hPa 0 mm - - -
1788021031 23.89° C 33% 1012.1 hPa 0 mm - - -
1788020414 24.44° C 33% 1012.1 hPa 0 mm - - -
1788019808 23.33° C 34% 1012.2 hPa 0 mm - - -
1788019205 22.78° C 36% 1012.2 hPa 0 mm - - -
1788018595 21.67° C 34% 1012.2 hPa 0 mm - - -
1788017998 21.67° C 34% 1012.2 hPa 0 mm - - -
1788017383 21.67° C 35% 1012.2 hPa 0 mm - - -
1788016777 21.67° C 35% 1012.1 hPa 0 mm - - -
1788016170 21.67° C 35% 1012.3 hPa 0 mm - - -
1788015565 21.11° C 39% 1012.3 hPa 0 mm - - -
1788014960 21.11° C 39% 1012.4 hPa 0 mm - - -
1788014352 20° C 40% 1012.1 hPa 0 mm - - -
1788013746 20° C 40% 1012.4 hPa 0 mm - - -
1788013140 19.44° C 41% 1012.5 hPa 0 mm - - -
1788012534 19.44° C 43% 1012.4 hPa 0 mm - - -
1788011928 19.44° C 43% 1012.5 hPa 0 mm - - -

* Rain latest hour (hover to see other rain measurements)
** Current wind speed in m/s (hover to see current wind gust speed)